Year,Month,Day,Hour,Minute,Value (Times are PST for temperature in C)
2017,10,17,11,03,-0.20
2017,10,17,11,04,-0.20
2017,10,17,11,05,-0.20
2017,10,17,11,06,-0.20
2017,10,17,11,07,-0.20
2017,10,17,11,08,-0.20
2017,10,17,11,09,-0.20
2017,10,17,11,10,-0.20
2017,10,17,11,11,-0.20
2017,10,17,11,12,-0.20
2017,10,17,11,13,0.00
2017,10,17,11,14,0.00
2017,10,17,11,15,0.00
2017,10,17,11,16,0.00
2017,10,17,11,17,0.00
2017,10,17,11,18,0.00
2017,10,17,11,19,0.00
2017,10,17,11,20,0.00
2017,10,17,11,21,0.00
2017,10,17,11,22,0.00
2017,10,17,11,23,0.00
2017,10,17,11,24,0.00
2017,10,17,11,25,0.20
2017,10,17,11,26,0.20
2017,10,17,11,27,0.20
2017,10,17,11,28,0.20
2017,10,17,11,29,0.20
2017,10,17,11,30,0.20
2017,10,17,11,31,0.20
2017,10,17,11,32,0.20
2017,10,17,11,33,0.20
2017,10,17,11,34,0.20
2017,10,17,11,35,0.20
2017,10,17,11,36,0.20
2017,10,17,11,37,0.20
2017,10,17,11,38,0.20
2017,10,17,11,39,0.20
2017,10,17,11,40,0.20
2017,10,17,11,41,0.20
2017,10,17,11,42,0.20
2017,10,17,11,43,0.20
2017,10,17,11,44,0.30
2017,10,17,11,45,0.30
2017,10,17,11,46,0.30
2017,10,17,11,47,0.30
2017,10,17,11,48,0.30
2017,10,17,11,49,0.30
2017,10,17,11,50,0.30
2017,10,17,11,51,0.30
2017,10,17,11,52,0.30
2017,10,17,11,53,0.30
2017,10,17,11,54,0.50
2017,10,17,11,55,0.50
2017,10,17,11,56,0.50
2017,10,17,11,57,0.50
2017,10,17,11,58,0.50
2017,10,17,11,59,0.50
2017,10,17,12,00,0.50
2017,10,17,12,01,0.50
2017,10,17,12,02,0.50
2017,10,17,12,03,0.50
2017,10,17,12,04,0.50
2017,10,17,12,05,0.50
2017,10,17,12,06,0.50
2017,10,17,12,07,0.50
2017,10,17,12,08,0.50
2017,10,17,12,09,0.50
2017,10,17,12,10,0.50
2017,10,17,12,11,0.50
2017,10,17,12,12,0.50
2017,10,17,12,13,0.50
2017,10,17,12,14,0.60
2017,10,17,12,15,0.60
2017,10,17,12,16,0.60
2017,10,17,12,17,0.60
2017,10,17,12,18,0.60
2017,10,17,12,19,0.60
2017,10,17,12,20,0.60
2017,10,17,12,21,0.60
2017,10,17,12,22,0.60
2017,10,17,12,23,0.60
2017,10,17,12,24,0.50
2017,10,17,12,25,0.50
2017,10,17,12,26,0.50
2017,10,17,12,27,0.50
2017,10,17,12,28,0.50
2017,10,17,12,29,0.50
2017,10,17,12,30,0.50
2017,10,17,12,31,0.50
2017,10,17,12,32,0.50
2017,10,17,12,33,0.80
2017,10,17,12,34,0.80
2017,10,17,12,35,0.80
2017,10,17,12,36,0.80
2017,10,17,12,37,0.80
2017,10,17,12,38,0.80
2017,10,17,12,39,0.80
2017,10,17,12,40,0.80
2017,10,17,12,41,0.80
2017,10,17,12,42,0.80
2017,10,17,12,43,0.80
2017,10,17,12,44,1.00
2017,10,17,12,45,1.00
2017,10,17,12,46,1.00
2017,10,17,12,47,1.00
2017,10,17,12,48,1.00
2017,10,17,12,49,1.00
2017,10,17,12,50,1.00
2017,10,17,12,51,1.00
2017,10,17,12,52,1.00
2017,10,17,12,53,1.30
2017,10,17,12,54,1.30
2017,10,17,12,55,1.30
2017,10,17,12,56,1.30
2017,10,17,12,57,1.30
2017,10,17,12,58,1.30
2017,10,17,12,59,1.30
2017,10,17,13,00,1.30
2017,10,17,13,01,1.30
2017,10,17,13,02,1.30
2017,10,17,13,03,1.30
2017,10,17,13,04,1.30
2017,10,17,13,05,1.10
2017,10,17,13,06,1.10
2017,10,17,13,07,1.10
2017,10,17,13,08,1.10
2017,10,17,13,09,1.10
2017,10,17,13,10,1.10
2017,10,17,13,11,1.10
2017,10,17,13,12,1.10
2017,10,17,13,13,1.10
2017,10,17,13,14,1.00
2017,10,17,13,15,1.00
2017,10,17,13,16,1.00
2017,10,17,13,17,1.00
2017,10,17,13,18,1.00
2017,10,17,13,19,1.00
2017,10,17,13,20,1.00
2017,10,17,13,21,1.00
2017,10,17,13,22,1.00
2017,10,17,13,23,1.00
2017,10,17,13,24,1.00
2017,10,17,13,25,1.00
2017,10,17,13,26,1.00
2017,10,17,13,27,1.00
2017,10,17,13,28,1.00
2017,10,17,13,29,1.00
2017,10,17,13,30,1.00
2017,10,17,13,31,1.00
2017,10,17,13,32,1.00
2017,10,17,13,33,1.60
2017,10,17,13,34,1.60
2017,10,17,13,35,1.60
2017,10,17,13,36,1.60
2017,10,17,13,37,1.60
2017,10,17,13,38,1.60
2017,10,17,13,39,1.60
2017,10,17,13,40,1.60
2017,10,17,13,41,1.60
2017,10,17,13,42,1.60
2017,10,17,13,43,1.60
2017,10,17,13,44,1.60
2017,10,17,13,45,1.60
2017,10,17,13,46,1.60
2017,10,17,13,47,1.60
2017,10,17,13,48,1.60
2017,10,17,13,49,1.60
2017,10,17,13,50,1.60
2017,10,17,13,51,1.60
2017,10,17,13,52,1.60
2017,10,17,13,53,1.60
2017,10,17,13,54,1.50
2017,10,17,13,55,1.50
2017,10,17,13,56,1.50
2017,10,17,13,57,1.50
2017,10,17,13,58,1.50
2017,10,17,13,59,1.50
2017,10,17,14,00,1.50
2017,10,17,14,01,1.50
2017,10,17,14,02,1.50
2017,10,17,14,03,1.50
2017,10,17,14,04,1.70
2017,10,17,14,05,1.70
2017,10,17,14,06,1.70
2017,10,17,14,07,1.70
2017,10,17,14,08,1.70
2017,10,17,14,09,1.70
2017,10,17,14,10,1.70
2017,10,17,14,11,1.70
2017,10,17,14,12,1.70
2017,10,17,14,13,1.70
2017,10,17,14,14,2.00
2017,10,17,14,15,2.00
2017,10,17,14,16,2.00
2017,10,17,14,17,2.00
2017,10,17,14,18,2.00
2017,10,17,14,19,2.00
2017,10,17,14,20,2.00
2017,10,17,14,21,2.00
2017,10,17,14,22,2.00
2017,10,17,14,23,1.70
2017,10,17,14,24,1.70
2017,10,17,14,25,1.70
2017,10,17,14,26,1.70
2017,10,17,14,27,1.70
2017,10,17,14,28,1.70
2017,10,17,14,29,1.70
2017,10,17,14,30,1.70
2017,10,17,14,31,1.70
2017,10,17,14,32,1.70
2017,10,17,14,33,2.20
2017,10,17,14,34,2.20
2017,10,17,14,35,2.20
2017,10,17,14,36,2.20
2017,10,17,14,37,2.20
2017,10,17,14,38,2.20
2017,10,17,14,39,2.20
2017,10,17,14,40,2.20
2017,10,17,14,41,2.20
2017,10,17,14,42,2.20
2017,10,17,14,43,2.60
2017,10,17,14,44,2.60
2017,10,17,14,45,2.60
2017,10,17,14,46,2.60
2017,10,17,14,47,2.60
2017,10,17,14,48,2.60
2017,10,17,14,49,2.60
2017,10,17,14,50,2.60
2017,10,17,14,51,2.60
2017,10,17,14,52,2.60
2017,10,17,14,53,2.60
2017,10,17,14,54,3.10
2017,10,17,14,55,3.10
2017,10,17,14,56,3.10
2017,10,17,14,57,3.10
2017,10,17,14,58,3.10
2017,10,17,14,59,3.10
2017,10,17,15,00,3.10
2017,10,17,15,01,3.10
2017,10,17,15,02,3.10
2017,10,17,15,03,3.10
2017,10,17,15,04,3.30
2017,10,17,15,05,3.30
2017,10,17,15,06,3.30
2017,10,17,15,07,3.30
2017,10,17,15,08,3.30
2017,10,17,15,09,3.30
2017,10,17,15,10,3.30
2017,10,17,15,11,3.30
2017,10,17,15,12,3.30
2017,10,17,15,13,3.30
2017,10,17,15,14,2.80
2017,10,17,15,15,2.80
2017,10,17,15,16,2.80
2017,10,17,15,17,2.80
2017,10,17,15,18,2.80
2017,10,17,15,19,2.80
2017,10,17,15,20,2.80
2017,10,17,15,21,2.80
2017,10,17,15,22,2.80
2017,10,17,15,23,2.80
2017,10,17,15,24,2.80
2017,10,17,15,25,2.80
2017,10,17,15,26,2.80
2017,10,17,15,27,2.80
2017,10,17,15,28,2.80
2017,10,17,15,29,2.80
2017,10,17,15,30,2.80
2017,10,17,15,31,2.80
2017,10,17,15,32,2.80
2017,10,17,15,33,2.80
2017,10,17,15,34,2.90
2017,10,17,15,35,2.90
2017,10,17,15,36,2.90
2017,10,17,15,37,2.90
2017,10,17,15,38,2.90
2017,10,17,15,39,2.90
2017,10,17,15,40,2.90
2017,10,17,15,41,2.90
2017,10,17,15,42,2.90
2017,10,17,15,43,2.90
2017,10,17,15,44,2.70
2017,10,17,15,45,2.70
2017,10,17,15,46,2.70
2017,10,17,15,47,2.70
2017,10,17,15,48,2.70
2017,10,17,15,49,2.70
2017,10,17,15,50,2.70
2017,10,17,15,51,2.70
2017,10,17,15,52,2.70
2017,10,17,15,53,2.30
2017,10,17,15,54,2.30
2017,10,17,15,55,2.30
2017,10,17,15,56,2.30
2017,10,17,15,57,2.30
2017,10,17,15,58,2.30
2017,10,17,15,59,2.30
2017,10,17,16,00,2.30
2017,10,17,16,01,2.30
2017,10,17,16,02,2.30
2017,10,17,16,03,2.30
2017,10,17,16,04,2.30
2017,10,17,16,05,1.60
2017,10,17,16,06,1.60
2017,10,17,16,07,1.60
2017,10,17,16,08,1.60
2017,10,17,16,09,1.60
2017,10,17,16,10,1.60
2017,10,17,16,11,1.60
2017,10,17,16,12,1.60
2017,10,17,16,13,1.60
2017,10,17,16,14,1.60
2017,10,17,16,15,1.00
2017,10,17,16,16,1.00
2017,10,17,16,17,1.00
2017,10,17,16,18,1.00
2017,10,17,16,19,1.00
2017,10,17,16,20,1.00
2017,10,17,16,21,1.00
2017,10,17,16,22,1.00
2017,10,17,16,23,1.00
2017,10,17,16,24,1.00
2017,10,17,16,25,1.00
2017,10,17,16,26,1.00
2017,10,17,16,27,1.00
2017,10,17,16,28,1.00
2017,10,17,16,29,1.00
2017,10,17,16,30,1.00
2017,10,17,16,31,1.00
2017,10,17,16,32,1.00
2017,10,17,16,33,1.30
2017,10,17,16,34,1.30
2017,10,17,16,35,1.30
2017,10,17,16,36,1.30
2017,10,17,16,37,1.30
2017,10,17,16,38,1.30
2017,10,17,16,39,1.30
2017,10,17,16,40,1.30
2017,10,17,16,41,1.30
2017,10,17,16,42,1.30
2017,10,17,16,43,1.30
2017,10,17,16,44,1.30
2017,10,17,16,45,0.90
2017,10,17,16,46,0.90
2017,10,17,16,47,0.90
2017,10,17,16,48,0.90
2017,10,17,16,49,0.90
2017,10,17,16,50,0.90
2017,10,17,16,51,0.90
2017,10,17,16,52,0.90
2017,10,17,16,53,0.90
2017,10,17,16,54,0.90
2017,10,17,16,55,0.90
2017,10,17,16,56,0.90
2017,10,17,16,57,0.90
2017,10,17,16,58,0.90
2017,10,17,16,59,0.90
2017,10,17,17,00,0.90
2017,10,17,17,01,0.90
2017,10,17,17,02,0.90
2017,10,17,17,03,0.90
2017,10,17,17,04,0.90
2017,10,17,17,05,0.90
2017,10,17,17,06,0.90
2017,10,17,17,07,0.90
2017,10,17,17,08,0.90
2017,10,17,17,09,0.90
2017,10,17,17,10,0.90
2017,10,17,17,11,0.90
2017,10,17,17,12,0.90
2017,10,17,17,13,1.10
2017,10,17,17,14,1.10
2017,10,17,17,15,1.10
2017,10,17,17,16,1.10
2017,10,17,17,17,1.10
2017,10,17,17,18,1.10
2017,10,17,17,19,1.10
2017,10,17,17,20,1.10
2017,10,17,17,21,1.10
2017,10,17,17,22,1.10
2017,10,17,17,23,1.10
2017,10,17,17,24,1.10
2017,10,17,17,25,1.10
2017,10,17,17,26,1.10
2017,10,17,17,27,1.10
2017,10,17,17,28,1.10
2017,10,17,17,29,1.10
2017,10,17,17,30,1.10
2017,10,17,17,31,1.10
2017,10,17,17,32,1.10
2017,10,17,17,33,1.10
2017,10,17,17,34,1.00
2017,10,17,17,35,1.00
2017,10,17,17,36,1.00
2017,10,17,17,37,1.00
2017,10,17,17,38,1.00
2017,10,17,17,39,1.00
2017,10,17,17,40,1.00
2017,10,17,17,41,1.00
2017,10,17,17,42,1.00
2017,10,17,17,43,1.00
2017,10,17,17,44,0.70
2017,10,17,17,45,0.70
2017,10,17,17,46,0.70
2017,10,17,17,47,0.70
2017,10,17,17,48,0.70
2017,10,17,17,49,0.70
2017,10,17,17,50,0.70
2017,10,17,17,51,0.70
2017,10,17,17,52,0.70
2017,10,17,17,53,0.40
2017,10,17,17,54,0.40
2017,10,17,17,55,0.40
2017,10,17,17,56,0.40
2017,10,17,17,57,0.40
2017,10,17,17,58,0.40
2017,10,17,17,59,0.40
2017,10,17,18,00,0.40
2017,10,17,18,01,0.40
2017,10,17,18,02,0.40
2017,10,17,18,03,0.40
2017,10,17,18,04,0.40
2017,10,17,18,05,0.40
2017,10,17,18,06,0.40
2017,10,17,18,07,0.40
2017,10,17,18,08,0.40
2017,10,17,18,09,0.40
2017,10,17,18,10,0.40
2017,10,17,18,11,0.40
2017,10,17,18,12,0.40
2017,10,17,18,13,0.30
2017,10,17,18,14,0.30
2017,10,17,18,15,0.30
2017,10,17,18,16,0.30
2017,10,17,18,17,0.30
2017,10,17,18,18,0.30
2017,10,17,18,19,0.30
2017,10,17,18,20,0.30
2017,10,17,18,21,0.30
2017,10,17,18,22,0.30
2017,10,17,18,23,0.30
2017,10,17,18,24,0.30
2017,10,17,18,25,0.10
2017,10,17,18,26,0.10
2017,10,17,18,27,0.10
2017,10,17,18,28,0.10
2017,10,17,18,29,0.10
2017,10,17,18,30,0.10
2017,10,17,18,31,0.10
2017,10,17,18,32,0.10
2017,10,17,18,33,0.10
2017,10,17,18,34,0.00
2017,10,17,18,35,0.00
2017,10,17,18,36,0.00
2017,10,17,18,37,0.00
2017,10,17,18,38,0.00
2017,10,17,18,39,0.00
2017,10,17,18,40,0.00
2017,10,17,18,41,0.00
2017,10,17,18,42,0.00
2017,10,17,18,43,-0.10
2017,10,17,18,44,-0.10
2017,10,17,18,45,-0.10
2017,10,17,18,46,-0.10
2017,10,17,18,47,-0.10
2017,10,17,18,48,-0.10
2017,10,17,18,49,-0.10
2017,10,17,18,50,-0.10
2017,10,17,18,51,-0.10
2017,10,17,18,52,-0.10
2017,10,17,18,53,-0.10
2017,10,17,18,54,-0.10
2017,10,17,18,55,-0.30
2017,10,17,18,56,-0.30
2017,10,17,18,57,-0.30
2017,10,17,18,58,-0.30
2017,10,17,18,59,-0.30
2017,10,17,19,00,-0.30
2017,10,17,19,01,-0.30
2017,10,17,19,02,-0.30
2017,10,17,19,03,-0.30
2017,10,17,19,04,-0.30
2017,10,17,19,05,-0.30
2017,10,17,19,06,-0.30
2017,10,17,19,07,-0.30
2017,10,17,19,08,-0.30
2017,10,17,19,09,-0.30
2017,10,17,19,10,-0.30
2017,10,17,19,11,-0.30
2017,10,17,19,12,-0.30
2017,10,17,19,13,-0.50
2017,10,17,19,14,-0.50
2017,10,17,19,15,-0.50
2017,10,17,19,16,-0.50
2017,10,17,19,17,-0.50
2017,10,17,19,18,-0.50
2017,10,17,19,19,-0.50
2017,10,17,19,20,-0.50
2017,10,17,19,21,-0.50
2017,10,17,19,22,-0.50
2017,10,17,19,23,-0.50
2017,10,17,19,24,-0.60
2017,10,17,19,25,-0.60
2017,10,17,19,26,-0.60
2017,10,17,19,27,-0.60
2017,10,17,19,28,-0.60
2017,10,17,19,29,-0.60
2017,10,17,19,30,-0.60
2017,10,17,19,31,-0.60
2017,10,17,19,32,-0.60
2017,10,17,19,33,-0.70
2017,10,17,19,34,-0.70
2017,10,17,19,35,-0.70
2017,10,17,19,36,-0.70
2017,10,17,19,37,-0.70
2017,10,17,19,38,-0.70
2017,10,17,19,39,-0.70
2017,10,17,19,40,-0.70
2017,10,17,19,41,-0.70
2017,10,17,19,42,-0.70
2017,10,17,19,43,-0.70
2017,10,17,19,44,-0.70
2017,10,17,19,45,-0.70
2017,10,17,19,46,-0.70
2017,10,17,19,47,-0.70
2017,10,17,19,48,-0.70
2017,10,17,19,49,-0.70
2017,10,17,19,50,-0.70
2017,10,17,19,51,-0.70
2017,10,17,19,52,-0.70
2017,10,17,19,53,-0.70
2017,10,17,19,54,-0.60
2017,10,17,19,55,-0.60
2017,10,17,19,56,-0.60
2017,10,17,19,57,-0.60
2017,10,17,19,58,-0.60
2017,10,17,19,59,-0.60
2017,10,17,20,00,-0.60
2017,10,17,20,01,-0.60
2017,10,17,20,02,-0.60
2017,10,17,20,03,-0.60
2017,10,17,20,04,-0.50
2017,10,17,20,05,-0.50
2017,10,17,20,06,-0.50
2017,10,17,20,07,-0.50
2017,10,17,20,08,-0.50
2017,10,17,20,09,-0.50
2017,10,17,20,10,-0.50
2017,10,17,20,11,-0.50
2017,10,17,20,12,-0.50
2017,10,17,20,13,-0.60
2017,10,17,20,14,-0.60
2017,10,17,20,15,-0.60
2017,10,17,20,16,-0.60
2017,10,17,20,17,-0.60
2017,10,17,20,18,-0.60
2017,10,17,20,19,-0.60
2017,10,17,20,20,-0.60
2017,10,17,20,21,-0.60
2017,10,17,20,22,-0.60
2017,10,17,20,23,-0.60
2017,10,17,20,24,-0.60
2017,10,17,20,25,-0.60
2017,10,17,20,26,-0.60
2017,10,17,20,27,-0.60
2017,10,17,20,28,-0.60
2017,10,17,20,29,-0.60
2017,10,17,20,30,-0.60
2017,10,17,20,31,-0.60
2017,10,17,20,32,-0.60
2017,10,17,20,33,-0.60
2017,10,17,20,34,-0.70
2017,10,17,20,35,-0.70
2017,10,17,20,36,-0.70
2017,10,17,20,37,-0.70
2017,10,17,20,38,-0.70
2017,10,17,20,39,-0.70
2017,10,17,20,40,-0.70
2017,10,17,20,41,-0.70
2017,10,17,20,42,-0.70
2017,10,17,20,43,-0.80
2017,10,17,20,44,-0.80
2017,10,17,20,45,-0.80
2017,10,17,20,46,-0.80
2017,10,17,20,47,-0.80
2017,10,17,20,48,-0.80
2017,10,17,20,49,-0.80
2017,10,17,20,50,-0.80
2017,10,17,20,51,-0.80
2017,10,17,20,52,-0.80
2017,10,17,20,53,-0.80
2017,10,17,20,54,-0.60
2017,10,17,20,55,-0.60
2017,10,17,20,56,-0.60
2017,10,17,20,57,-0.60
2017,10,17,20,58,-0.60
2017,10,17,20,59,-0.60
2017,10,17,21,00,-0.60
2017,10,17,21,01,-0.60
2017,10,17,21,02,-0.60
2017,10,17,21,03,-0.60
2017,10,17,21,04,-0.60
2017,10,17,21,05,-0.60
2017,10,17,21,06,-0.60
2017,10,17,21,07,-0.60
2017,10,17,21,08,-0.60
2017,10,17,21,09,-0.60
2017,10,17,21,10,-0.60
2017,10,17,21,11,-0.60
2017,10,17,21,12,-0.60
2017,10,17,21,13,-0.60
2017,10,17,21,14,-0.70
2017,10,17,21,15,-0.70
2017,10,17,21,16,-0.70
2017,10,17,21,17,-0.70
2017,10,17,21,18,-0.70
2017,10,17,21,19,-0.70
2017,10,17,21,20,-0.70
2017,10,17,21,21,-0.70
2017,10,17,21,22,-0.70
2017,10,17,21,23,-0.70
2017,10,17,21,24,-0.70
2017,10,17,21,25,-0.80
2017,10,17,21,26,-0.80
2017,10,17,21,27,-0.80
2017,10,17,21,28,-0.80
2017,10,17,21,29,-0.80
2017,10,17,21,30,-0.80
2017,10,17,21,31,-0.80
2017,10,17,21,32,-0.80
2017,10,17,21,33,-0.80
2017,10,17,21,34,-0.80
2017,10,17,21,35,-0.80
2017,10,17,21,36,-0.80
2017,10,17,21,37,-0.80
2017,10,17,21,38,-0.80
2017,10,17,21,39,-0.80
2017,10,17,21,40,-0.80
2017,10,17,21,41,-0.80
2017,10,17,21,42,-0.80
2017,10,17,21,43,-1.00
2017,10,17,21,44,-1.00
2017,10,17,21,45,-1.00
2017,10,17,21,46,-1.00
2017,10,17,21,47,-1.00
2017,10,17,21,48,-1.00
2017,10,17,21,49,-1.00
2017,10,17,21,50,-1.00
2017,10,17,21,51,-1.00
2017,10,17,21,52,-1.00
2017,10,17,21,53,-1.00
2017,10,17,21,54,-1.00
2017,10,17,21,55,-1.30
2017,10,17,21,56,-1.30
2017,10,17,21,57,-1.30
2017,10,17,21,58,-1.30
2017,10,17,21,59,-1.30
2017,10,17,22,00,-1.30
2017,10,17,22,01,-1.30
2017,10,17,22,02,-1.30
2017,10,17,22,03,-1.20
2017,10,17,22,04,-1.20
2017,10,17,22,05,-1.20
2017,10,17,22,06,-1.20
2017,10,17,22,07,-1.20
2017,10,17,22,08,-1.20
2017,10,17,22,09,-1.20
2017,10,17,22,10,-1.20
2017,10,17,22,11,-1.20
2017,10,17,22,12,-1.20
2017,10,17,22,13,-1.30
2017,10,17,22,14,-1.30
2017,10,17,22,15,-1.30
2017,10,17,22,16,-1.30
2017,10,17,22,17,-1.30
2017,10,17,22,18,-1.30
2017,10,17,22,19,-1.30
2017,10,17,22,20,-1.30
2017,10,17,22,21,-1.30
2017,10,17,22,22,-1.30
2017,10,17,22,23,-1.30
2017,10,17,22,24,-1.30
2017,10,17,22,25,-1.30
2017,10,17,22,26,-1.30
2017,10,17,22,27,-1.30
2017,10,17,22,28,-1.30
2017,10,17,22,29,-1.30
2017,10,17,22,30,-1.30
2017,10,17,22,31,-1.30
2017,10,17,22,32,-1.30
2017,10,17,22,33,-1.30
2017,10,17,22,34,-1.30
2017,10,17,22,35,-1.20
2017,10,17,22,36,-1.20
2017,10,17,22,37,-1.20
2017,10,17,22,38,-1.20
2017,10,17,22,39,-1.20
2017,10,17,22,40,-1.20
2017,10,17,22,41,-1.20
2017,10,17,22,42,-1.20
2017,10,17,22,43,-1.20
2017,10,17,22,44,-1.30
2017,10,17,22,45,-1.30
2017,10,17,22,46,-1.30
2017,10,17,22,47,-1.30
2017,10,17,22,48,-1.30
2017,10,17,22,49,-1.30
2017,10,17,22,50,-1.30
2017,10,17,22,51,-1.30
2017,10,17,22,52,-1.30
2017,10,17,22,53,-1.30
2017,10,17,22,54,-1.40
2017,10,17,22,55,-1.40
2017,10,17,22,56,-1.40
2017,10,17,22,57,-1.40
2017,10,17,22,58,-1.40
2017,10,17,22,59,-1.40
2017,10,17,23,00,-1.40
2017,10,17,23,01,-1.40
2017,10,17,23,02,-1.40
2017,10,17,23,03,-1.50
2017,10,17,23,04,-1.50
2017,10,17,23,05,-1.50
2017,10,17,23,06,-1.50
2017,10,17,23,07,-1.50
2017,10,17,23,08,-1.50
2017,10,17,23,09,-1.50
2017,10,17,23,10,-1.50
2017,10,17,23,11,-1.50
2017,10,17,23,12,-1.50
2017,10,17,23,13,-1.40
2017,10,17,23,14,-1.40
2017,10,17,23,15,-1.40
2017,10,17,23,16,-1.40
2017,10,17,23,17,-1.40
2017,10,17,23,18,-1.40
2017,10,17,23,19,-1.40
2017,10,17,23,20,-1.40
2017,10,17,23,21,-1.40
2017,10,17,23,22,-1.40
2017,10,17,23,23,-1.30
2017,10,17,23,24,-1.30
2017,10,17,23,25,-1.30
2017,10,17,23,26,-1.30
2017,10,17,23,27,-1.30
2017,10,17,23,28,-1.30
2017,10,17,23,29,-1.30
2017,10,17,23,30,-1.30
2017,10,17,23,31,-1.30
2017,10,17,23,32,-1.30
2017,10,17,23,33,-1.30
2017,10,17,23,34,-1.30
2017,10,17,23,35,-1.30
2017,10,17,23,36,-1.30
2017,10,17,23,37,-1.30
2017,10,17,23,38,-1.30
2017,10,17,23,39,-1.30
2017,10,17,23,40,-1.30
2017,10,17,23,41,-1.30
2017,10,17,23,42,-1.30
2017,10,17,23,43,-1.30
2017,10,17,23,44,-1.30
2017,10,17,23,45,-1.30
2017,10,17,23,46,-1.30
2017,10,17,23,47,-1.30
2017,10,17,23,48,-1.30
2017,10,17,23,49,-1.30
2017,10,17,23,50,-1.30
2017,10,17,23,51,-1.30
2017,10,17,23,52,-1.30
2017,10,17,23,53,-1.30
2017,10,17,23,54,-1.30
2017,10,17,23,55,-1.30
2017,10,17,23,56,-1.30
2017,10,17,23,57,-1.30
2017,10,17,23,58,-1.30
2017,10,17,23,59,-1.30
